EHI
0 0 0 0 0 0 0 0 0 0 0 0 1 1 1 1 1 2 5 9 11 9 9 11 12 13 15 21 27 28 25 25 23 18 16 14 12 11 11 12 16 16 15 14
0 0 0 0 0 0 0 0 0 0 0 0 0 0 1 2 2 3 5 9 11 12 13 14 15 15 17 23 29 31 29 27 22 16 13 14 13 11 11 12 15 17 16 14
0 0 0 0 0 0 0 0 0 0 0 0 0 1 2 3 4 5 6 8 11 14 16 18 19 18 17 22 28 31 32 29 21 15 13 14 15 13 11 13 18 19 17 15
0 0 0 0 0 0 0 0 0 0 0 0 0 1 4 4 5 7 8 10 13 16 17 20 21 20 18 19 24 30 34 31 24 19 17 17 17 14 13 15 20 21 20 17
0 0 0 0 0 0 0 0 0 0 0 0 0 1 3 4 6 10 12 14 17 20 21 21 22 23 20 18 22 31 38 36 31 24 21 21 20 17 15 17 20 21 22 21
0 0 0 0 0 0 0 0 0 0 0 0 0 1 2 4 7 11 14 16 21 23 22 22 24 25 22 19 22 32 41 42 37 30 27 25 23 21 20 19 20 21 23 24
0 0 0 0 0 0 0 0 0 0 0 0 0 1 3 5 8 11 13 17 21 24 22 24 27 26 23 22 27 36 43 44 41 37 33 28 24 24 24 22 22 22 23 25
0 0 0 0 0 0 0 0 0 0 0 0 0 2 4 6 9 11 13 16 20 24 23 23 25 26 24 26 32 39 44 45 42 40 36 29 25 25 25 25 24 22 20 21
0 0 0 0 0 0 0 0 0 0 0 0 1 3 5 7 10 12 13 14 18 22 22 20 21 23 23 27 33 40 45 45 42 40 35 28 26 26 26 27 27 21 18 17
0 0 0 0 0 0 0 0 0 0 0 0 1 4 6 9 12 13 12 13 16 19 18 18 19 20 21 25 32 40 45 45 42 38 34 29 28 28 28 29 28 24 19 18
0 0 0 0 0 0 0 0 0 0 0 0 1 4 7 10 14 15 14 13 16 17 16 17 21 22 22 25 31 38 43 44 42 39 37 35 33 31 29 29 29 27 25 24
0 0 0 0 0 0 0 0 0 0 0 0 1 4 8 11 14 16 15 14 16 17 18 21 25 26 27 30 34 39 42 42 41 39 40 40 38 35 33 32 31 31 31 30
0 0 0 0 0 0 0 0 0 0 0 0 1 4 9 12 12 14 15 15 15 19 24 30 33 35 37 41 44 45 44 41 38 38 39 41 41 39 38 36 35 34 33 32
0 0 0 0 0 0 0 0 0 0 0 0 1 5 10 12 13 13 15 16 17 23 31 37 42 45 48 50 51 50 47 42 39 39 40 43 43 42 43 42 39 36 34 32
0 0 0 0 0 0 0 0 0 0 0 0 1 6 12 15 15 15 15 16 20 26 32 38 45 49 51 52 52 52 50 47 44 42 42 46 46 44 44 44 42 39 35 34
0 0 0 0 0 0 0 0 0 0 0 1 3 7 13 15 15 15 14 16 22 27 29 33 41 48 50 52 53 54 54 52 47 42 40 43 44 43 43 43 42 41 39 38
0 0 0 0 0 0 0 0 1 1 1 3 5 10 13 12 12 13 14 17 21 24 25 29 37 44 48 50 53 54 53 52 50 43 39 39 41 41 41 42 44 45 44 43
1 1 1 0 0 0 1 1 2 3 4 6 8 10 11 10 11 15 16 17 20 22 24 27 34 40 44 46 48 50 49 49 49 46 42 40 42 42 42 44 47 50 50 49
1 2 1 0 0 0 1 2 2 4 6 9 11 11 10 10 13 18 20 19 19 22 23 25 28 35 42 44 46 47 46 45 45 44 43 43 45 44 43 46 49 52 54 53
1 1 1 0 0 0 1 2 2 4 7 10 13 14 13 12 15 20 22 21 19 21 23 23 25 31 40 46 47 46 44 43 44 43 42 45 47 46 45 47 51 54 54 53
0 0 0 0 0 1 2 3 5 7 10 11 14 17 16 15 18 20 21 20 20 21 22 24 26 31 40 46 46 45 44 43 44 45 45 47 47 46 45 48 53 54 52 51
0 0 0 0 0 2 5 7 9 13 13 13 15 17 17 16 18 20 20 20 20 22 22 25 28 33 39 42 42 42 42 43 45 46 46 46 44 41 41 45 51 52 50 49
0 0 1 2 3 5 8 10 11 13 15 15 16 16 17 17 17 20 20 18 19 22 23 24 28 33 36 37 38 39 40 41 42 43 42 42 41 38 38 41 45 47 46 45
0 0 2 4 4 5 8 10 10 12 15 16 16 17 18 18 19 20 19 18 20 23 25 26 28 31 33 35 35 36 37 38 39 39 38 38 38 38 39 40 40 40 40 40
1 1 2 5 6 5 7 10 11 13 16 16 16 17 18 18 19 20 21 21 21 23 25 28 30 31 32 33 34 35 35 36 37 37 35 34 35 38 39 37 32 29 29 28
2 2 2 4 7 6 7 10 13 16 16 15 16 17 17 17 18 19 22 24 22 22 25 28 30 30 31 32 34 34 34 36 38 36 33 32 33 36 37 34 25 19 18 16
Wind_Speed
12 11 10 8 7 7 5 1 0 1 3 2 3 5 7 8 9 9 10 10 11 10 11 9 8 8 7 7 6 4 3 3 2 1 1 1 1 2 2 3 4 4 3 3
11 14 12 10 8 7 6 4 3 2 3 3 4 4 6 7 8 8 10 10 11 11 11 10 9 8 7 7 6 5 4 3 2 1 1 1 1 2 3 3 4 4 3 2
15 12 10 9 9 8 8 6 3 2 3 5 5 7 8 8 7 8 10 10 11 12 12 11 9 8 8 8 7 5 4 4 2 2 1 1 1 1 2 3 3 3 3 3
14 12 9 10 10 10 8 5 3 5 5 4 5 3 6 9 10 10 10 10 11 12 12 12 11 9 8 8 8 6 5 4 3 2 2 2 2 2 2 2 3 3 3 3
13 11 10 11 10 9 7 6 6 7 7 6 7 3 4 6 9 10 10 10 11 12 12 12 12 10 9 9 9 7 6 4 3 2 2 1 2 2 2 3 3 3 3 3
14 10 10 11 9 9 7 8 10 10 8 7 6 4 5 7 8 10 11 10 11 12 12 12 12 11 9 9 9 9 7 5 4 3 3 2 2 2 2 3 3 3 3 3
15 14 12 10 10 11 10 8 6 6 6 5 4 4 4 7 9 8 9 11 12 12 12 12 12 12 10 10 9 9 9 6 5 4 3 3 3 2 2 2 2 2 2 3
13 12 13 12 11 9 10 10 7 6 5 3 4 3 4 6 7 8 9 9 12 12 11 12 12 12 11 11 10 10 9 7 6 5 4 3 3 3 2 2 1 2 2 3
9 9 8 9 9 11 10 10 10 9 8 7 3 2 4 6 8 9 10 10 10 11 12 12 12 12 11 11 10 10 10 8 7 6 5 3 3 2 2 2 2 2 2 3
10 8 9 9 10 13 13 10 8 8 6 6 3 4 4 7 6 8 9 10 9 10 11 12 11 11 10 10 10 10 10 9 7 7 6 6 4 3 2 2 2 2 2 2
12 10 9 10 11 11 12 12 9 7 7 7 4 1 4 7 6 5 7 9 10 9 10 10 10 10 10 10 10 9 9 9 8 7 6 5 5 5 4 3 3 3 2 2
10 10 9 10 9 10 11 11 9 7 6 7 5 1 3 4 6 5 5 7 7 7 8 9 10 10 9 9 9 8 8 7 7 7 6 6 5 5 5 4 4 3 3 3
6 8 9 10 10 11 11 11 11 9 7 7 7 3 4 4 4 5 6 6 5 6 6 7 8 7 8 8 7 7 7 7 7 7 7 6 5 5 4 4 4 4 4 3
6 9 10 10 6 7 10 11 11 10 7 9 7 3 2 2 3 4 5 4 4 5 6 6 7 6 6 6 6 6 6 7 7 6 6 6 6 5 5 4 4 4 4 4
8 10 12 12 12 10 11 12 12 12 11 11 7 5 3 2 2 3 4 4 3 5 5 6 6 5 5 5 5 5 5 5 5 5 5 5 5 5 5 5 4 4 4 5
8 9 11 14 14 12 13 13 12 13 12 11 8 4 3 2 2 2 3 3 3 3 3 5 6 6 5 4 4 4 4 4 5 4 4 4 5 5 5 5 5 4 4 4
8 7 10 12 13 13 15 13 13 11 8 8 6 3 3 3 2 1 2 3 3 2 3 4 4 5 4 5 4 4 4 4 5 5 5 5 5 5 5 6 5 5 4 4
7 6 7 11 11 15 8 6 6 7 5 4 4 3 2 3 3 2 3 3 4 3 3 3 3 3 4 4 4 4 4 4 4 5 5 5 5 5 5 5 5 5 4 4
8 7 9 10 12 13 9 8 7 6 4 3 2 2 1 2 3 1 3 3 3 3 2 2 2 3 3 3 3 3 4 4 5 5 5 5 5 5 5 5 5 4 4 4
10 7 9 11 13 12 6 3 3 5 5 1 1 1 1 2 2 2 3 3 3 3 2 1 1 2 2 2 3 3 4 4 4 4 4 5 5 5 6 6 5 5 4 5
11 11 13 14 14 9 4 3 4 7 1 4 4 3 2 3 3 3 2 3 3 2 1 1 1 1 1 1 1 2 3 3 3 2 2 3 4 4 5 5 4 4 5 5
10 10 11 12 14 9 3 1 1 3 4 3 4 3 4 4 3 3 3 3 2 1 1 1 1 1 1 1 1 2 3 2 2 2 3 4 4 5 5 4 4 5 5 5
8 6 5 4 3 2 5 4 3 2 2 3 2 3 3 2 2 2 2 2 3 2 2 1 0 0 1 2 2 3 2 1 2 3 3 4 5 4 4 5 5 5 5 5
7 4 5 3 4 2 2 2 2 2 1 1 1 1 1 1 1 0 1 1 2 2 2 2 1 1 1 2 2 2 2 2 2 3 3 3 4 5 4 4 4 5 5 5
4 3 5 6 4 3 2 1 1 2 1 1 2 2 2 2 1 1 2 2 2 2 2 2 1 1 2 1 2 2 2 2 3 2 2 3 4 4 3 4 3 4 4 4
6 5 6 5 2 3 1 1 1 2 2 1 0 1 1 2 2 2 3 2 2 2 1 2 2 2 2 2 2 2 2 2 3 3 3 3 3 3 4 3 2 0 3 5
Wind_Direction
222 231 239 236 236 251 266 261 226 187 162 166 155 167 166 171 164 152 155 155 156 155 151 151 153 141 132 122 119 114 107 97 88 80 111 123 120 120 120 115 113 116 114 113
227 231 237 246 249 254 258 253 234 204 174 213 173 174 175 187 173 161 155 155 156 154 151 150 150 144 135 128 125 125 128 122 119 125 140 130 108 117 109 104 109 107 115 121
232 235 230 232 243 249 248 252 242 258 234 229 205 179 184 189 175 167 154 158 160 158 157 153 155 154 149 145 144 143 134 128 134 147 132 98 99 77 87 104 105 101 107 114
237 239 237 238 240 247 249 255 241 243 247 244 242 194 184 181 177 172 164 165 162 158 156 157 160 160 157 151 147 135 134 133 135 150 145 145 128 119 114 108 107 112 113 110
241 232 236 243 247 252 260 265 256 251 252 247 237 224 187 196 186 173 170 169 163 159 160 160 162 161 162 155 148 143 138 136 136 141 131 144 120 121 116 116 120 123 127 125
249 240 238 247 252 258 256 260 259 252 249 251 240 220 181 195 183 175 170 168 164 161 159 158 158 157 159 156 151 147 142 142 147 152 139 122 113 107 117 131 144 152 138 132
235 235 226 231 243 240 239 248 255 248 236 243 243 228 166 162 159 164 162 164 163 159 157 157 156 157 160 159 155 147 146 151 158 155 147 138 136 140 158 165 158 148 135 131
228 228 217 219 234 243 238 246 252 265 272 259 224 225 161 144 149 141 145 151 151 154 156 158 158 159 163 160 155 151 149 155 160 159 155 146 156 185 178 163 155 131 124 126
242 233 206 211 230 246 245 251 258 261 263 263 233 197 153 149 151 149 150 151 152 154 157 158 161 163 163 161 159 159 154 156 160 162 156 157 168 179 129 130 143 118 121 135
256 248 225 207 220 235 246 257 265 265 276 273 223 206 180 156 162 156 153 152 154 154 156 156 157 158 158 157 156 156 158 159 161 165 172 168 170 164 151 147 123 115 103 100
246 248 236 218 219 230 229 241 253 278 281 279 270 153 152 166 163 150 150 148 153 158 157 155 156 157 157 157 157 155 157 160 167 172 174 163 165 168 166 169 151 138 132 141
240 250 246 231 224 234 246 246 251 258 271 282 287 189 134 153 136 139 127 127 136 149 152 151 152 154 156 157 155 154 157 164 169 167 167 169 164 167 173 171 163 160 159 164
247 254 244 228 217 220 234 239 242 251 258 264 266 216 141 126 127 131 117 114 120 127 134 140 138 143 149 152 150 153 157 165 170 167 173 167 166 171 175 164 162 166 164 163
258 249 256 255 248 231 228 234 239 246 252 258 253 216 167 130 123 115 115 118 130 129 125 127 130 134 136 141 147 153 160 167 165 163 175 167 170 175 175 169 168 171 168 171
243 245 253 265 267 261 253 246 237 240 249 261 259 239 188 155 123 120 125 130 127 127 134 127 127 130 135 140 144 154 164 164 160 159 168 160 167 170 172 172 173 174 177 182
239 260 257 257 257 253 257 257 255 248 246 252 249 227 170 153 133 108 122 136 135 123 125 135 135 134 139 141 147 156 163 163 158 165 168 164 169 174 174 173 172 177 181 179
233 243 256 258 256 254 247 244 248 254 257 259 259 215 182 157 153 140 146 152 142 138 137 133 142 149 156 158 159 167 170 168 170 177 178 176 177 178 177 182 176 181 185 184
244 255 256 259 257 250 253 255 252 260 272 275 266 234 201 149 152 171 169 157 137 131 131 139 153 155 156 163 166 175 184 180 182 183 180 177 179 179 177 182 183 183 184 191
233 239 249 255 252 252 248 246 250 253 267 296 279 260 220 153 136 144 98 98 110 113 119 132 168 178 162 164 158 166 190 195 194 192 186 185 187 187 186 191 190 186 190 196
216 224 242 247 251 250 247 255 259 245 232 345 348 309 286 230 216 109 71 73 95 95 106 148 193 177 160 160 158 171 200 202 205 204 195 190 191 196 198 195 191 191 195 201
205 212 229 243 252 256 271 261 244 243 180 39 37 29 26 46 35 63 64 69 81 90 108 111 118 153 151 152 163 206 215 216 208 201 193 185 189 199 202 197 194 195 200 204
214 216 222 236 245 248 340 291 344 55 50 40 50 42 51 60 60 63 57 43 24 51 122 136 99 106 143 167 194 229 241 224 200 191 197 195 195 208 206 192 199 205 206 201
226 233 237 241 244 50 41 70 78 73 47 31 26 21 47 65 83 65 44 21 345 345 346 341 279 232 205 202 206 235 254 238 211 205 208 205 206 209 201 197 199 202 202 205
211 227 244 241 208 167 61 69 66 46 33 5 6 17 35 18 74 55 320 313 299 325 330 313 289 270 264 244 228 229 253 232 220 220 222 218 207 208 201 196 200 204 203 206
273 241 244 247 238 210 207 138 59 350 342 354 21 28 26 2 345 354 322 302 306 303 310 310 308 295 282 280 269 252 241 225 224 216 219 228 226 216 204 205 215 220 210 203
264 253 248 254 282 269 237 148 225 284 297 326 5 342 19 332 314 297 274 272 300 308 323 313 300 285 271 257 256 241 212 205 210 223 218 230 232 216 210 206 199 182 227 199